Weather History for Findlay, OH

Change the Weather History Date:

Friday, March 7, 2014

  Actual Average Record
Temperature  
Mean Temperature 32 °F -  
Max Temperature 48 °F 42 °F 72 °F (1987)
Min Temperature 15 °F 26 °F 3 °F (1999)
Degree Days  
Heating Degree Days 34    
Moisture  
Dew Point 24 °F    
Average Humidity 74    
Maximum Humidity 91    
Minimum Humidity 52    
Precipitation  
Precipitation 0.00 in - - ()
Sea Level Pressure  
Sea Level Pressure 30.02 in    
Wind  
Wind Speed 4 mph (South)    
Max Wind Speed 9 mph    
Max Gust Speed -    
Visibility 8 miles    
Events      
Averages and records for this station are not official NWS values.
T = Trace of Precipitation, MM = Missing Value Source: NWS Daily Summary

Daily Weather History Graph

Daily Weather History Graph

Search for Another Location

Airport:

Trip Planner

Search our weather history database for the weather conditions in past years. The results will help you decide how hot, cold, wet, or windy it might be!

Date:

Astronomy

Mar. 07, 2014 Rise Set
Actual Time 6:59 AM EST 6:32 PM EST
Civil Twilight 6:31 AM EST 7:00 PM EST
Nautical Twilight 6:00 AM EST 7:31 PM EST
Astronomical Twilight 5:28 AM EST 8:03 PM EST
Moon 10:48 AM EST (3/7) 12:39 AM EST (3/7)
Length of Visible Light 12h 28m
Length of Day
11h 33m
Waxing Crescent, 42% of the Moon is Illuminated
Mar 7
Waxing Crescent
Mar 8
First Quarter
Mar 16
Full
Mar 23
Last Quarter
Mar 30
New

Hourly Weather History & Observations

Time (EST) Temp. Windchill Dew Point Humidity Pressure Visibility Wind Dir Wind Speed Gust Speed Precip Events Conditions
12:53 AM 18.0 °F 11.1 °F 15.1 °F 88% 30.13 in 10.0 mi ESE 4.6 mph - N/A   Clear
1:53 AM 18.0 °F 12.7 °F 15.1 °F 88% 30.11 in 9.0 mi East 3.5 mph - N/A   Clear
2:53 AM 18.0 °F - 14.0 °F 84% 30.09 in 9.0 mi Calm Calm - N/A   Clear
3:53 AM 18.0 °F 12.7 °F 14.0 °F 84% 30.08 in 8.0 mi North 3.5 mph - N/A   Clear
4:53 AM 17.1 °F 11.7 °F 14.0 °F 88% 30.07 in 7.0 mi East 3.5 mph - N/A   Clear
5:53 AM 15.1 °F - 12.9 °F 91% 30.08 in 7.0 mi Calm Calm - N/A   Clear
6:53 AM 16.0 °F - 10.9 °F 81% 30.07 in 7.0 mi Calm Calm - N/A   Clear
7:53 AM 21.9 °F 17.2 °F 19.0 °F 89% 30.09 in 6.0 mi SSE 3.5 mph - N/A   Clear
8:53 AM 28.0 °F 21.7 °F 21.0 °F 75% 30.09 in 7.0 mi SSE 5.8 mph - N/A   Clear
9:53 AM 36.0 °F 29.0 °F 26.1 °F 67% 30.07 in 10.0 mi SSE 9.2 mph - N/A   Clear
10:53 AM 39.9 °F 34.5 °F 28.0 °F 63% 30.07 in 10.0 mi South 8.1 mph - N/A   Clear
11:53 AM 43.0 °F 39.5 °F 28.9 °F 58% 30.04 in 10.0 mi SSW 5.8 mph - N/A   Clear
12:53 PM 46.0 °F 44.8 °F 30.9 °F 56% 30.02 in 10.0 mi SW 3.5 mph - N/A   Clear
1:53 PM 48.0 °F - 30.9 °F 52% 29.98 in 10.0 mi SW 8.1 mph - N/A   Clear
2:53 PM 48.9 °F - 33.1 °F 54% 29.97 in 10.0 mi WNW 5.8 mph - N/A   Clear
3:53 PM 48.9 °F - 33.1 °F 54% 29.95 in 10.0 mi Calm Calm - N/A   Clear
4:53 PM 46.9 °F - 34.0 °F 61% 29.96 in 7.0 mi NW 9.2 mph - N/A   Clear
5:53 PM 43.0 °F 41.3 °F 28.9 °F 58% 29.95 in 6.0 mi NNW 3.5 mph - N/A   Haze
6:53 PM 41.0 °F - 28.0 °F 60% 29.95 in 7.0 mi Calm Calm - N/A   Clear
7:53 PM 36.0 °F 32.1 °F 28.0 °F 73% 29.94 in 6.0 mi SSE 4.6 mph - N/A   Haze
8:53 PM 34.0 °F 31.0 °F 28.9 °F 82% 29.94 in 5.0 mi South 3.5 mph - N/A   Haze
9:53 PM 33.1 °F - 28.9 °F 85% 29.96 in 4.0 mi Calm Calm - N/A   Clear
10:53 PM 32.0 °F 28.7 °F 28.9 °F 88% 29.95 in 3.0 mi SSW 3.5 mph - N/A   Clear
11:53 PM 33.1 °F 30.0 °F 28.9 °F 85% 29.93 in 4.0 mi South 3.5 mph - N/A   Clear